Temperature
7 8 9 9 10 10 10 10 10 11 11 12 12 12 12 12 13 13 13 13 13 14 14 14 14 14 14 14 14 14 15 15 15 16 16 16 16 16 16 17 17 17 17
7 9 9 9 10 10 10 10 10 10 10 11 11 11 11 12 12 12 12 13 13 13 13 13 14 14 14 14 14 14 14 15 15 15 16 16 16 16 16 16 16 17 17
8 9 9 9 10 10 10 10 10 10 10 10 10 10 10 11 11 12 12 12 12 12 13 13 13 13 13 14 14 14 14 14 14 15 15 15 16 16 16 16 16 16 16
8 9 9 9 9 9 9 9 9 9 9 9 9 9 9 9 10 10 11 11 11 11 12 12 12 12 13 13 13 14 14 14 14 14 15 15 15 15 16 16 16 16 16
8 9 9 9 9 9 9 9 9 8 8 7 7 7 7 7 8 7 8 9 9 10 10 10 10 11 12 12 13 13 13 13 14 14 14 14 15 15 15 15 16 16 16
8 8 9 9 9 9 8 8 7 7 6 6 6 5 5 6 6 6 6 7 7 7 8 8 9 9 10 11 12 12 13 13 13 13 14 14 14 15 15 15 15 16 16
8 8 9 8 8 8 7 7 6 6 5 5 5 5 5 5 5 5 5 5 5 6 6 6 7 8 8 9 10 11 12 13 13 13 13 13 13 14 14 15 15 15 16
8 8 8 8 7 7 6 5 5 5 5 5 5 5 5 5 5 5 5 5 5 5 5 5 6 6 7 7 9 10 11 12 12 13 13 13 13 13 14 14 15 15 15
7 7 7 7 6 6 5 5 4 4 4 4 4 4 4 4 4 4 4 4 4 4 4 4 4 5 5 6 7 8 9 10 11 12 12 12 13 13 13 14 14 15 15
7 7 6 5 5 5 4 4 3 3 3 3 3 3 3 3 3 3 3 3 3 3 3 4 4 4 4 5 6 7 8 9 9 10 11 12 12 12 13 13 14 14 15
6 6 5 4 4 3 3 3 3 3 2 2 2 2 2 3 3 3 3 3 3 3 3 3 3 3 4 4 5 6 6 7 8 9 10 10 11 12 12 13 13 14 14
5 4 4 3 3 3 3 2 2 2 2 2 2 2 2 2 2 2 2 2 2 2 2 2 2 2 3 3 4 4 5 6 7 8 9 9 10 11 11 12 13 13 14
4 3 3 3 3 2 2 2 2 2 2 1 1 1 1 1 1 1 1 1 1 1 1 1 1 2 2 2 3 3 4 4 5 6 8 8 9 10 11 11 12 13 13
3 3 2 2 2 2 2 1 1 1 1 1 0 0 -0 -0 -0 -0 -0 -1 -1 -1 -1 -1 -0 -0 0 1 1 2 2 3 4 5 6 7 8 9 10 11 11 12 12
2 2 2 2 2 1 1 1 1 0 0 -0 -1 -1 -1 -1 -2 -2 -2 -2 -3 -3 -3 -2 -2 -2 -1 -1 -0 0 1 2 3 3 4 6 7 8 9 9 10 11 12
2 2 1 1 1 1 1 1 0 -0 -1 -1 -2 -2 -2 -3 -3 -3 -4 -4 -4 -4 -4 -4 -4 -3 -3 -2 -1 -1 0 1 1 2 3 4 5 7 8 9 9 10 11
1 1 1 1 1 1 0 0 -1 -1 -2 -2 -3 -3 -4 -4 -5 -5 -5 -6 -6 -6 -6 -5 -5 -5 -4 -4 -3 -2 -1 -0 0 1 2 3 4 5 6 8 9 9 10
1 0 0 0 0 0 0 -0 -1 -2 -2 -3 -4 -4 -5 -5 -6 -6 -7 -7 -7 -7 -7 -7 -6 -6 -5 -5 -4 -3 -2 -2 -1 0 1 2 3 4 5 6 8 9 10
0 -0 -0 -0 -0 -0 -0 -1 -2 -2 -3 -4 -5 -5 -6 -6 -7 -7 -7 -8 -8 -8 -8 -8 -8 -8 -7 -6 -6 -5 -4 -3 -2 -1 -1 0 1 2 3 5 7 8 9
-1 -1 -1 -1 -1 -1 -1 -2 -2 -3 -4 -5 -5 -6 -7 -7 -8 -8 -8 -9 -9 -9 -9 -9 -9 -9 -9 -8 -8 -6 -5 -4 -3 -3 -3 -2 -1 -1 1 3 5 7 8
-1 -1 -1 -1 -1 -2 -2 -3 -3 -4 -5 -5 -6 -7 -8 -8 -9 -9 -10 -10 -10 -10 -11 -11 -10 -10 -10 -10 -9 -8 -6 -5 -4 -5 -4 -3 -3 -2 -1 1 3 5 7
-1 -1 -1 -1 -2 -3 -4 -4 -5 -5 -6 -6 -7 -7 -8 -9 -9 -10 -10 -11 -11 -12 -12 -11 -11 -11 -11 -11 -12 -11 -9 -8 -5 -5 -5 -4 -4 -3 -2 -0 1 3 5
-1 -1 -1 -2 -3 -3 -4 -5 -5 -5 -6 -6 -7 -8 -9 -10 -10 -11 -11 -12 -12 -13 -13 -13 -13 -13 -13 -12 -12 -12 -10 -9 -9 -7 -7 -6 -5 -4 -3 -1 0 2 4
-1 -1 -2 -2 -3 -4 -5 -5 -6 -7 -7 -8 -9 -9 -9 -10 -11 -11 -12 -12 -13 -13 -13 -13 -14 -13 -13 -13 -12 -12 -11 -11 -10 -9 -8 -7 -6 -5 -4 -2 -1 1 2
-1 -2 -2 -3 -4 -4 -5 -6 -6 -7 -8 -9 -9 -9 -10 -11 -11 -12 -13 -13 -13 -14 -14 -14 -14 -14 -14 -14 -13 -12 -11 -10 -10 -9 -8 -8 -7 -6 -4 -3 -2 -0 1
-2 -2 -2 -3 -4 -4 -5 -6 -7 -8 -8 -9 -9 -10 -11 -11 -12 -12 -13 -13 -13 -14 -14 -14 -14 -14 -14 -13 -13 -12 -12 -11 -10 -10 -9 -9 -8 -6 -5 -4 -3 -1 0
Wind_Speed
12 24 27 28 29 29 30 30 31 31 31 31 31 31 31 32 32 32 32 32 32 32 31 31 30 29 29 28 26 23 21 19 17 14 12 10 10 9 7 6 6 5 6
16 23 26 28 28 29 30 30 30 30 31 31 31 31 31 31 31 31 32 32 32 31 31 31 30 30 29 29 28 27 24 21 19 17 14 12 11 11 10 9 8 7 8
19 22 25 28 28 28 29 29 29 30 30 30 30 30 30 31 31 31 32 32 31 31 31 31 30 30 30 29 29 28 27 24 22 19 17 12 10 12 13 11 10 10 10
18 22 24 27 28 28 29 29 29 29 30 30 30 30 30 30 31 31 32 32 32 31 30 30 30 30 30 30 30 29 28 27 25 21 15 12 11 13 14 13 13 13 12
19 23 25 27 27 28 28 29 29 29 29 29 29 29 29 30 30 30 31 31 31 31 31 30 30 30 30 30 30 29 28 27 27 22 16 14 13 15 16 15 14 15 14
19 23 25 27 27 27 27 28 28 28 28 28 28 28 28 29 29 29 30 31 31 31 30 30 30 30 30 30 30 29 29 29 26 20 17 16 14 16 18 18 17 16 17
17 22 25 26 26 26 26 28 28 28 28 28 28 28 28 29 29 29 29 30 30 30 30 30 30 30 30 30 29 29 29 29 23 19 18 16 15 18 19 20 20 19 19
16 20 23 26 26 25 25 26 27 27 27 27 28 29 29 30 30 29 30 30 30 30 29 29 30 30 30 29 29 29 29 28 22 19 19 18 18 19 20 21 22 22 21
17 20 23 24 24 24 24 26 27 26 27 26 27 28 29 30 30 30 30 30 30 29 29 29 30 30 30 29 29 29 29 27 21 19 19 17 19 21 21 21 21 23 23
14 18 21 23 24 24 22 24 26 25 25 25 26 27 27 27 28 28 29 30 30 29 29 29 30 30 29 28 29 29 28 23 21 21 17 18 23 25 23 22 21 22 24
11 15 20 21 21 21 19 20 23 21 22 22 23 25 24 23 23 24 27 28 29 29 29 29 29 29 28 26 28 29 24 19 22 18 17 21 26 27 25 24 22 21 23
11 9 15 17 18 19 17 16 19 17 19 20 21 22 22 21 21 22 24 25 27 27 28 28 29 26 24 22 24 25 19 22 19 17 19 26 27 27 27 26 24 22 22
7 8 11 14 16 17 17 15 17 17 18 18 20 21 21 20 19 20 20 20 22 23 23 25 24 22 21 21 21 20 20 20 17 19 21 27 28 28 28 27 26 24 22
6 7 8 12 15 16 17 16 16 17 16 17 18 20 20 18 18 19 18 19 20 20 21 21 20 22 22 22 21 20 20 18 19 19 21 27 29 29 29 27 26 25 23
6 7 8 10 15 16 16 15 16 17 16 18 18 19 20 18 17 18 17 18 19 20 20 20 20 21 20 20 20 20 19 21 21 21 20 27 30 29 28 27 26 25 24
5 7 9 8 14 15 15 15 15 17 17 18 18 20 20 19 18 18 17 16 18 20 20 19 20 18 17 17 17 19 20 21 20 21 22 25 27 28 27 26 26 25 24
4 6 9 8 13 14 15 16 16 18 18 17 17 19 19 19 19 18 16 15 17 20 20 19 18 16 14 14 14 16 17 18 19 21 22 21 21 23 25 25 24 24 24
4 6 8 10 12 13 15 16 17 18 18 17 18 18 18 19 19 18 15 14 19 19 17 15 10 12 13 13 14 14 13 15 17 20 19 19 18 17 19 22 23 22 22
4 6 6 9 10 13 15 16 17 17 17 17 18 17 19 19 20 19 16 15 19 16 14 13 10 12 13 14 14 14 13 14 15 16 14 16 16 15 14 18 21 20 19
4 5 6 7 9 12 13 13 13 13 15 16 17 18 20 20 21 20 16 16 18 12 8 9 12 12 12 13 16 15 14 16 14 11 11 10 11 12 14 16 16 16 18
4 5 6 6 8 10 6 6 7 8 7 11 15 18 20 20 21 20 16 16 16 10 10 11 12 13 11 11 12 14 13 12 11 6 7 7 7 9 14 15 15 13 13
5 5 6 7 7 9 8 7 6 7 7 11 15 17 18 21 22 20 18 16 15 10 10 10 12 10 11 9 10 12 8 6 4 11 8 7 7 8 12 15 16 14 14
4 5 7 7 7 10 12 10 10 5 4 5 7 7 17 21 21 21 20 18 16 10 10 11 11 11 12 11 8 7 6 6 12 6 6 6 7 9 10 11 13 15 16
3 5 6 7 7 10 12 8 9 9 10 10 7 9 18 20 21 21 20 20 17 14 11 12 10 10 11 11 10 7 9 11 8 7 5 5 8 10 10 12 14 13 14
4 5 6 6 6 9 11 8 8 8 7 9 9 9 10 16 19 20 21 19 17 15 12 11 12 11 9 10 10 10 11 11 11 9 12 9 8 7 8 12 12 11 11
4 5 6 7 7 8 9 8 9 10 10 13 13 11 10 9 13 17 21 19 18 16 13 13 11 12 11 11 10 10 10 9 8 8 11 14 12 9 10 10 10 9 8
Wind_Direction
340 346 359 9 13 15 17 17 17 17 17 17 16 15 15 14 13 12 11 9 7 6 4 3 1 360 359 357 352 344 335 325 316 310 304 299 294 282 260 237 237 243 213
346 352 2 12 15 16 17 17 17 17 16 16 15 14 14 13 11 11 9 7 5 4 2 1 360 358 357 355 353 349 341 331 319 309 300 293 287 283 271 245 232 236 223
358 357 2 13 15 17 17 17 17 16 16 15 14 13 13 11 10 9 7 5 3 2 1 359 358 357 355 353 351 348 345 339 328 315 303 291 278 276 271 257 239 236 228
6 4 5 16 16 17 17 17 16 16 15 14 13 13 12 10 8 7 5 3 1 360 359 357 356 355 353 351 349 347 345 343 338 326 310 294 278 275 270 261 246 238 230
17 13 8 17 17 17 17 17 16 15 14 14 13 12 11 9 7 6 4 1 360 358 356 356 354 352 350 349 347 345 344 342 340 333 319 301 284 277 272 265 252 242 233
23 19 14 19 17 17 17 17 15 14 14 13 12 12 11 8 6 5 3 360 358 356 354 353 351 350 348 346 345 343 342 342 338 332 323 310 292 282 275 266 257 246 236
28 25 19 19 18 16 16 16 14 14 13 12 11 10 9 7 4 3 1 358 356 354 352 351 349 347 346 345 343 342 341 340 337 334 328 317 304 293 280 269 260 250 239
35 29 25 20 18 16 15 15 13 13 12 12 11 10 8 5 2 1 360 356 355 353 351 349 347 345 344 343 342 341 340 339 338 336 327 317 309 302 289 274 265 255 245
41 34 27 22 18 15 14 15 13 13 12 12 10 8 7 3 0 359 357 354 354 352 350 348 346 344 342 341 340 340 339 338 343 333 325 321 318 313 299 286 273 260 250
44 37 27 23 18 12 11 14 12 12 11 11 8 6 5 1 358 356 353 351 352 350 350 347 345 343 341 339 338 337 338 340 337 327 322 318 322 320 311 299 283 269 256
34 34 26 20 17 12 12 14 11 11 9 9 6 4 2 356 352 353 349 349 350 348 348 345 343 342 341 337 335 334 337 333 328 322 318 316 320 319 315 310 298 280 263
20 17 22 17 14 15 13 9 10 6 2 2 1 1 358 353 350 351 346 347 348 346 346 343 342 341 338 333 330 331 328 326 324 319 314 314 315 315 314 311 304 291 274
8 359 7 12 14 16 10 7 9 1 359 359 358 358 355 351 348 346 343 343 343 344 342 339 338 336 332 328 324 322 321 323 318 314 309 309 311 313 311 308 303 295 284
4 349 351 11 15 15 12 5 7 359 355 355 353 356 354 350 346 344 341 338 341 341 337 335 331 328 326 323 319 317 317 316 312 309 305 307 309 308 306 303 299 294 285
358 341 342 12 14 12 10 5 1 355 352 349 350 353 353 348 343 341 336 335 336 337 334 331 328 325 324 322 318 316 314 311 306 303 303 304 304 304 303 300 297 292 284
349 341 340 12 14 10 6 360 356 351 348 348 348 348 349 345 340 338 333 331 334 334 330 327 322 321 321 318 314 314 309 305 302 301 301 301 301 301 301 299 295 290 285
348 339 339 6 9 6 3 358 352 346 343 341 340 341 342 341 337 335 329 326 331 330 327 326 320 323 320 317 313 310 307 303 301 300 298 296 295 299 300 301 298 290 284
353 336 335 356 358 1 360 354 347 340 337 333 333 333 335 336 335 332 325 322 327 327 327 325 324 326 320 317 313 309 305 303 300 296 294 292 292 294 300 308 306 296 285
343 322 322 335 350 355 354 349 342 335 330 328 329 330 333 334 333 329 320 320 325 324 323 324 327 322 319 316 312 307 305 301 294 292 291 290 289 295 305 317 318 311 296
328 311 309 326 347 353 350 344 337 331 326 326 327 330 331 331 330 326 319 322 323 320 319 319 319 319 314 314 312 307 302 292 286 284 287 292 297 309 325 324 322 320 315
311 316 317 337 346 353 348 343 333 328 319 317 326 329 327 327 327 322 320 321 319 316 316 316 320 318 317 318 315 315 299 280 276 294 300 298 305 330 334 330 327 323 321
303 317 333 347 341 346 340 326 313 309 305 314 322 320 325 328 327 326 323 319 316 314 312 314 317 315 317 324 316 317 312 305 338 326 303 306 323 337 331 328 320 322 318
308 330 343 338 336 340 339 331 329 309 300 319 324 317 326 327 324 321 318 317 313 311 310 309 306 312 315 312 305 302 305 312 323 282 291 306 327 325 322 319 315 316 310
330 340 339 335 335 339 341 336 337 343 335 328 324 320 325 326 323 322 321 317 313 312 306 305 314 304 303 307 306 283 287 295 296 306 301 306 310 315 313 315 311 305 304
2 345 340 338 334 337 338 333 329 321 312 318 320 318 320 324 323 322 321 316 313 311 304 300 301 295 295 294 295 294 294 291 276 286 303 311 312 302 304 305 301 299 301
357 345 344 345 338 334 333 328 324 318 319 326 331 329 329 324 321 318 319 313 309 306 301 299 295 291 290 288 287 286 287 289 294 295 298 307 310 310 305 298 297 297 300
Height
1616 1613 1611 1607 1604 1600 1596 1593 1589 1586 1583 1580 1577 1575 1572 1569 1567 1565 1563 1561 1559 1557 1556 1554 1553 1551 1550 1548 1547 1546 1546 1545 1545 1545 1544 1544 1544 1544 1544 1544 1544 1544 1545
1617 1614 1611 1607 1604 1600 1596 1593 1589 1586 1582 1579 1576 1574 1571 1568 1565 1563 1560 1558 1557 1555 1553 1552 1550 1549 1547 1546 1545 1544 1543 1542 1542 1542 1542 1541 1541 1542 1542 1542 1542 1543 1543
1617 1614 1610 1607 1603 1600 1596 1593 1589 1585 1582 1578 1575 1572 1569 1566 1563 1560 1558 1556 1553 1551 1549 1548 1546 1545 1544 1543 1542 1541 1540 1539 1539 1538 1538 1538 1539 1539 1539 1540 1540 1541 1542
1617 1614 1610 1607 1603 1599 1596 1592 1588 1584 1580 1577 1573 1570 1567 1564 1560 1557 1555 1552 1550 1547 1545 1543 1542 1541 1540 1539 1538 1537 1536 1535 1535 1534 1534 1534 1535 1536 1536 1537 1538 1539 1539
1617 1613 1610 1607 1603 1599 1595 1590 1586 1582 1578 1574 1571 1568 1564 1561 1558 1554 1551 1548 1546 1543 1541 1539 1537 1535 1535 1534 1533 1532 1531 1530 1530 1530 1530 1530 1531 1531 1532 1533 1534 1535 1536
1616 1613 1609 1606 1602 1597 1593 1589 1584 1580 1576 1572 1569 1565 1562 1558 1555 1552 1548 1545 1542 1540 1537 1534 1532 1530 1529 1528 1527 1527 1526 1525 1525 1525 1525 1526 1526 1527 1528 1529 1530 1531 1533
1615 1612 1608 1604 1600 1596 1591 1587 1583 1579 1575 1571 1567 1564 1560 1556 1553 1549 1546 1543 1539 1536 1533 1531 1528 1526 1524 1522 1521 1520 1519 1519 1519 1519 1520 1520 1521 1522 1523 1524 1525 1527 1528
1614 1610 1606 1602 1598 1594 1589 1585 1581 1577 1573 1569 1566 1562 1559 1555 1551 1547 1543 1540 1536 1533 1530 1527 1524 1522 1519 1517 1515 1514 1513 1512 1512 1512 1513 1514 1516 1516 1517 1518 1519 1521 1523
1613 1609 1605 1600 1596 1592 1588 1583 1579 1575 1571 1568 1564 1560 1557 1553 1550 1545 1541 1537 1533 1529 1526 1523 1520 1517 1514 1512 1510 1508 1506 1505 1505 1505 1506 1507 1509 1510 1511 1512 1513 1515 1517
1611 1607 1603 1599 1594 1590 1586 1582 1578 1574 1570 1566 1562 1558 1554 1550 1547 1543 1539 1535 1530 1526 1522 1519 1515 1512 1509 1506 1504 1502 1499 1498 1498 1498 1499 1500 1501 1502 1503 1505 1506 1508 1510
1610 1606 1601 1596 1592 1588 1584 1580 1576 1571 1567 1563 1559 1555 1551 1547 1543 1539 1535 1531 1527 1523 1519 1515 1511 1507 1503 1501 1499 1496 1493 1491 1490 1490 1491 1492 1492 1493 1495 1497 1499 1501 1503
1608 1603 1598 1594 1589 1586 1582 1578 1574 1570 1566 1561 1557 1553 1549 1544 1540 1536 1532 1527 1523 1519 1515 1511 1506 1502 1498 1495 1492 1490 1487 1484 1483 1482 1482 1483 1484 1485 1486 1488 1490 1493 1495
1607 1602 1597 1593 1589 1585 1581 1577 1573 1569 1565 1560 1555 1550 1546 1542 1537 1532 1527 1522 1517 1513 1508 1504 1501 1497 1493 1489 1486 1483 1480 1478 1476 1474 1474 1475 1475 1475 1477 1479 1482 1484 1487
1605 1601 1596 1592 1589 1585 1581 1576 1572 1568 1563 1558 1553 1547 1542 1538 1533 1528 1523 1518 1512 1507 1503 1498 1494 1491 1487 1484 1480 1477 1474 1471 1469 1466 1465 1466 1466 1467 1468 1470 1473 1476 1479
1604 1600 1595 1592 1588 1584 1580 1575 1571 1566 1561 1556 1551 1545 1540 1534 1529 1523 1518 1513 1509 1503 1498 1493 1489 1484 1480 1477 1474 1470 1467 1464 1462 1459 1457 1458 1458 1458 1460 1461 1463 1466 1470
1603 1599 1595 1591 1587 1583 1579 1574 1569 1564 1559 1554 1548 1543 1537 1531 1525 1520 1514 1509 1504 1499 1494 1489 1484 1479 1474 1470 1467 1464 1460 1457 1454 1452 1450 1449 1449 1450 1451 1453 1454 1457 1460
1602 1598 1593 1589 1586 1582 1577 1572 1567 1562 1557 1551 1545 1539 1533 1527 1522 1516 1510 1505 1500 1495 1490 1484 1479 1474 1469 1464 1460 1457 1453 1450 1447 1445 1443 1442 1441 1441 1443 1444 1445 1448 1451
1601 1596 1592 1588 1584 1580 1575 1570 1565 1559 1553 1547 1541 1535 1529 1524 1518 1512 1506 1501 1496 1490 1485 1479 1474 1468 1463 1458 1453 1449 1446 1443 1440 1438 1436 1435 1434 1434 1434 1435 1436 1439 1441
1599 1594 1590 1586 1582 1578 1573 1568 1563 1557 1550 1544 1538 1532 1526 1520 1514 1508 1502 1497 1491 1485 1480 1475 1470 1464 1458 1453 1447 1442 1439 1436 1433 1431 1429 1428 1427 1427 1426 1426 1427 1430 1433
1597 1592 1588 1584 1580 1575 1570 1565 1559 1553 1547 1541 1535 1529 1523 1516 1510 1504 1498 1492 1487 1481 1475 1471 1465 1460 1455 1449 1443 1437 1432 1430 1427 1425 1424 1423 1422 1420 1419 1418 1419 1421 1424
1595 1590 1586 1582 1577 1572 1565 1559 1553 1547 1541 1536 1530 1525 1518 1512 1506 1499 1493 1487 1482 1476 1471 1466 1461 1455 1451 1446 1439 1431 1425 1424 1421 1420 1420 1419 1417 1415 1413 1412 1412 1412 1415
1592 1588 1584 1579 1574 1569 1563 1556 1550 1544 1537 1532 1526 1520 1514 1508 1502 1495 1489 1483 1477 1471 1466 1461 1457 1451 1446 1444 1440 1433 1424 1419 1418 1416 1415 1414 1412 1410 1408 1406 1405 1405 1407
1589 1585 1581 1577 1572 1566 1560 1554 1547 1540 1534 1527 1520 1514 1509 1503 1497 1491 1484 1478 1472 1467 1461 1457 1452 1448 1442 1440 1439 1437 1430 1422 1415 1409 1410 1410 1408 1406 1403 1401 1400 1399 1400
1587 1583 1579 1575 1570 1564 1558 1551 1544 1536 1530 1523 1517 1510 1505 1499 1493 1486 1480 1474 1468 1462 1457 1452 1448 1444 1439 1435 1433 1431 1430 1425 1420 1409 1406 1405 1404 1401 1399 1396 1394 1394 1394
1584 1580 1577 1573 1567 1561 1555 1549 1542 1535 1528 1521 1514 1507 1500 1494 1489 1483 1476 1470 1464 1458 1452 1447 1442 1438 1434 1431 1428 1425 1423 1421 1418 1413 1404 1400 1398 1397 1394 1392 1390 1389 1389
1582 1578 1575 1570 1565 1559 1553 1546 1540 1533 1525 1518 1511 1503 1496 1490 1484 1479 1472 1466 1459 1453 1447 1441 1436 1432 1428 1425 1422 1420 1418 1416 1413 1410 1404 1398 1394 1391 1390 1388 1386 1385 1385